Location: Le Rocchette
(44.3500°N, 7.8333°E)
Time: 05:05:26
(UTC+00:00)

BREEZE-M DEB (TANK) - Pass Details

Date: 17 November 2019
Orbit: 398 x 14925 km, 46.0° (Epoch: 12 December)

Event Time Altitude Azimuth Distance (km) Brightness Sun altitude
Exits shadow 05:40:43 11° 281° (W) 1,533 4.4 -8.4°
Maximum altitude 05:43:24 50° 204° (SSW) 512 2.6 -8.0°
Drops below altitude 10° 05:46:14 10° 126° (SE) 1,596 6.6 -7.5°
Sets 05:48:44 0° 120° (ESE) 2,872 8.6 -7.1°
